www.pogodaiklimat.ru

Погода и климат >> Архив погоды >> Аргентина >> Villa Reynolds


ПОГОДА в Villa Reynolds

  • Прогноз погоды в Villa Reynolds
  • Монитор погоды в Villa Reynolds
  • Климат города

АРХИВ ПОГОДЫ в Villa Reynolds

Время (UTC), дата Ветер
(напр.,м/с)
 
Видим.   Явления Облачность Т
(С)
Тd
(С)
f
(%)
Тe
(С)
Тes
(С)
Комфортность P
(гПа)
Po
(гПа)
Тmin
(С)
Tmax
(С)
R
(мм)
R24
(мм)
S
(см)
00 19.02 штиль 0 15 км зарница {гроза} 9/6 900 м
[Cb cap Ac As Cs]
+26.0 +18.7 64 +31 +31 очень
душно
1000.3 946.5 +24.0 +34.5
03 19.02 ЮЗ 9 8000 м гроза, ливневой дождь 10/8 600 м
[Cb cap As op]
+20.0 +17.1 83 +22 +22 комфорт 1005.5 951.4
06 19.02 СВ 3 12 км зарница {гроза} 8/5 1050 м
[Cb cap Ac As]
+19.0 +15.7 81 +21 +21 комфорт 1003.3 949.6 1
09 19.02 штиль 0 10 км 6/0
[Ac As]
+17.6 +14.2 80 +18 +18 1005.8 951.7
12 19.02 Ю 3 15 км 3/0
[Ac As]
+21.0 +15.5 71 +25 +28 комфорт 1008.5 954.0 +17.4 +26.1 1
15 19.02 В 4 15 км 3/0
[Cs]
+25.6 +14.4 50 +28 +38 жарко 1008.7 954.0
18 19.02 В 4 15 км 4/0
[Ac trans Cs]
+29.0 +14.2 40 +31 +40 жарко 1006.9 952.5
21 19.02 В 4 15 км 1/0
[Ac trans]
+28.8 +10.5 32 +29 +31 жарко 1005.3 950.9
00 20.02 СВ 3 15 км зарница 1/1 1200 м
[Cb calv]
+21.1 +12.6 58 +23 +23 комфорт 1006.9 952.0 +21.0 +29.6
03 20.02 штиль 0 10 км зарница 1/1 1200 м
[Cb cap]
+17.0 +11.3 69 +17 +17 1008.2 953.3
06 20.02 Ю 3 10 км гроза без осадков 9/6 900 м
[Cb cap Ac As]
+16.5 +13.6 83 +16 +16 1008.1 953.4
09 20.02 СЗ 3 10 км в посл. час гроза 10/8 900 м
[Cb cap Ac As]
+15.8 +15.5 98 +15 +15 1006.6 952.0
12 20.02 СЗ 4 10 км {гроза} 9/6 900 м
[Cb cap Ac As]
+18.4 +14.7 79 +19 +19 1009.8 954.5 +14.6 +21.1 5
15 20.02 Ю 3 10 км 4/1 900 м
[Sc Ac As Ci sp]
+24.4 +16.1 60 +28 +39 душно 1011.2 956.0
18 20.02 ЮВ 7 10 км 5/3 900 м
[Sc Ac As Ci sp]
+27.0 +13.1 42 +29 +32 жарко 1011.3 956.2
21 20.02 В 9 10 км 8/5 600 м
[Sc As op]
+20.8 +8.7 46 +22 +22 комфорт 1015.0 959.2
00 21.02 штиль 0 10 км {гроза} 1/0
[Ac As]
+15.4 +11.8 79 +15 +15 1016.7 960.5 +15.4 +27.7
03 21.02 штиль 0 10 км ясно +11.8 +10.3 91 +11 +11 1017.9 961.8
06 21.02 штиль 0 10 км ясно +9.0 +8.2 95 +8 +8 1018.2 962.1
09 21.02 штиль 0 10 км ясно +7.0 +6.6 97 +6 +6 1019.1 962.2
12 21.02 С 1 12 км ясно +15.0 +9.8 71 +16 +21 1019.8 963.0 +6.3 +15.5
15 21.02 СЗ 3 15 км ясно +25.2 +7.3 32 1018.1 961.8
18 21.02 Ю 3 15 км 1/1 750 м
[Cu hum Ci fib]
+29.2 +6.7 24 +28 +41 жарко 1015.3 959.6
21 21.02 В 7 15 км 1/1 750 м
[Cu hum Ci fib]
+29.4 +7.6 25 +28 +29 жарко 1013.5 957.7
00 22.02 СВ 3 15 км ясно +20.4 +10.4 53 +22 +22 комфорт 1014.4 958.5 +15.0 +29.6
03 22.02 штиль 0 10 км ясно +17.0 +11.7 71 +17 +17 1015.3 960.0
06 22.02 штиль 0 10 км ясно +13.0 +10.4 84 +13 +13 1014.5 959.2
09 22.02 штиль 0 10 км ясно +11.0 +9.5 90 +10 +10 1014.7 959.2
12 22.02 штиль 0 15 км 6/0
[Cs]
+18.0 +12.0 68 +18 +23 1016.8 961.0 +10.2 +20.5
15 22.02 СВ 3 15 км 8/0
[Cs]
+30.2 +13.7 36 +32 +44 жарко 1015.5 960.6
18 22.02 В 4 15 км 9/3 1050 м
[Cu hum Cs]
+33.0 +8.7 22 +32 +38 жарко 1013.4 958.5
21 22.02 СВ 9 15 км 9/3 1050 м
[Cu hum Cs]
+31.5 +4.9 19 +29 +30 жарко 1012.1 957.0
03 23.02 С 4 15 км 5/0
[Cs]
+22.0 +9.9 46 +24 +24 комфорт 1011.7 957.4
06 23.02 С 3 10 км ясно +20.0 +11.2 57 1010.9
09 23.02 С 3 10 км ясно +18.5 +12.8 69 1010.7
12 23.02 С 3 15 км 8/0
[Ac As Cs]
+21.6 +14.3 63 +25 +27 комфорт 1012.6 957.7 +17.6 +23.9
15 23.02 В 4 15 км 4/4 1050 м
[Cu med, cong Cs]
+31.0 +13.1 34 +32 +39 жарко 1011.6 957.4
18 23.02 СВ 7 8000 м осадки на расстоянии 9/8 1050 м
[Cb cap Ac As]
+28.0 +6.3 25 +27 +28 жарко 1011.4 956.8
21 23.02 В 4 10 км 9/6 1050 м
[Cb cap Ac As]
+26.9 +9.1 33 +27 +28 жарко 1011.4 956.6
00 24.02 В 7 10 км 9/8 1050 м
[Cb cap Ac As]
+22.0 +12.0 53 +24 +24 комфорт 1013.1 958.0 +21.6 +33.8
03 24.02 З 3 7000 м гроза, ливневой дождь 10/8 750 м
[Cb cap As op]
+20.1 +11.1 56 +22 +22 комфорт 1016.9 962.2
06 24.02 штиль 0 5000 м гроза, ливневой дождь 10/5 300 м
[Cb cap As op]
+15.1 +14.9 99 +15 +15 1017.2 961.8 18
09 24.02 штиль 0 7000 м дымка {гроза} 9/8 300 м
[Frnb As op]
+14.5 +14.2 98 +14 +14 1016.6 961.0
12 24.02 З 1 10 км {гроза} 9/3 1050 м
[Sc Ac As Ci sp]
+16.6 +15.6 94 +17 +19 1018.6 962.8 +14.3 +22.1 0.0
15 24.02 штиль 0 10 км 10/5 1050 м
[Sc Ac As]
+19.2 +13.0 67 +20 +24 1019.1 963.3
18 24.02 штиль 0 4000 м слабая морось 10/9 600 м
[St Ac As]
+19.3 +16.2 82 +21 +22 комфорт 1018.8 962.6 0.0
21 24.02 штиль 0 10 км {морось} 10/8 300 м
[St Ac As]
+18.8 +15.7 82 +20 +20 1018.2 961.8
00 25.02 штиль 0 10 км {морось} 9/6 750 м
[Sc Ac As]
+17.0 +15.8 93 +17 +17 1018.9 962.6 +16.6 +20.3 2
03 25.02 штиль 0 8000 м гроза, ливневой дождь 10/6 450 м
[Cb cap As op]
+17.3 +16.8 97 +17 +17 1019.0 962.9
06 25.02 штиль 0 8000 м гроза, ливневой дождь 10/4 450 м
[Cb cap As op]
+16.8 +16.5 98 +17 +17 1018.3 962.2 3
09 25.02 штиль 0 5000 м дымка {гроза} 9/5 450 м
[Sc As op]
+15.7 +14.9 95 +15 +15 1017.5 961.3
12 25.02 штиль 0 8000 м дымка {гроза} 8/1 150 м
[Frnb Ac As]
+16.2 +15.5 96 +16 +18 1019.5 963.0 +14.6 +17.4 1
15 25.02 штиль 0 15 км 5/5 600 м
[Sc Ac As]
+21.8 +15.5 67 +25 +36 комфорт 1018.8 963.0
18 25.02 штиль 0 15 км 8/4 750 м
[Sc Ac As]
+25.4 +15.9 56 +29 +35 душно 1016.1 960.6
21 25.02 штиль 0 15 км 8/5 1050 м
[Cb cap Ac As]
+24.4 +17.6 66 +28 +30 душно 1014.9 959.4

 

Местоположение метеостанции Villa Reynolds (Аргентина): широта -33.73 долгота -65.38 высота над уровнем моря 486 м.

В архиве по умолчанию представлена погода в Villa Reynolds за последнюю неделю. Архивные данные за месяц целиком и за предыдущие месяцы, начиная с января 2011 года, Вы можете получить, выбрав интересующий диапазон дат из раскрывающегося списка и нажав кнопку "Ввод!".

Внимание! Время в таблицах - всемирное. Для получения местного времени необходимо прибавить поправку, которая в Villa Reynolds равна -3 ч.

Смотрите также архив погоды в соседних городах и на ближайших метеорологических станциях:

Погода в San Luis (Аргентина) (104 км)
Погода в Rio Cuarto (Аргентина) (125 км)
Погода в Laboulaye (Аргентина) (192 км)
Погода в Villa Dolores (Аргентина) (199 км)
Погода в General Pico (Аргентина) (265 км)
Погода в Pilar (Аргентина) (270 км)
Погода в San Martin (Аргентина) (290 км)
Погода в Cordoba (Аргентина) (291 км)
Погода в San Rafael (Аргентина) (294 км)
Погода в Marcos Juarez (Аргентина) (322 км)

Пояснения к столбцам:

Ветер - указаны скорость ветра в м/с - средняя за 10 мин, порывы в срок и между сроками (в фигурных скобках) и направление, откуда дует ветер: С - северный, СВ - северо-восточный, В - восточный, ЮВ - юго-восточный, Ю - южный, ЮЗ - юго-западный, З - западный, СЗ - северо-западный.
Видимость - горизонтальная дальность видимости в метрах или километрах. При видимости от 1 до 10 км при отсутствии осадков обычно наблюдается дымка, при ухудшении видимости до 1 км и менее - туман. В сухую погоду видимость может ухудшаться дымом, пылью или мглою.
Явления - указаны атмосферные явления, наблюдавшиеся в срок или в последний час перед сроком; фигурными скобками обозначены явления, наблюдавшиеся между сроками (за 1-3 часа до срока); квадратными скобками обозначены град или гололедные отложения с указанием их диаметра в мм.
Облачность - указаны через наклонную черту общая и нижняя облачность в баллах и высота нижней границы облаков в метрах; квадратными скобками обозначены формы облаков: Ci - перистые, Cs - перисто-слоистые, Cc - перисто-кучевые, Ac - высококучевые, As - высокослоистые, Sc - слоисто-кучевые, Ns - слоисто-дождевые, Cu - кучевые, Cb - кучево-дождевые. Подробнее классификацию облаков см. в Атласе облаков (PDF).
T - Температура воздуха - температура, измеренная на высоте 2 м над землей.
Td - Температура точки росы - температура, при понижении до которой содержащийся в воздухе водяной пар достигнет насыщения.
f - Относительная влажность воздуха - влажноcть воздуха, измеренная на высоте 2 м над землей.
Te - Эффективная температура - температура, которую ощущает одетый по сезону человек в тени. Характеристика душности погоды. При расчете учитывается влияние влажности воздуха и скорости ветра на теплоощущения человека.
Tes - Эффективная температура на солнце - температура, которую ощущает человек, с поправкой на солнечный нагрев. Характеристика знойности погоды. Зависит от высоты солнца над горизонтом, облачности и скорости ветра. Ночью, в пасмурную погоду, а также при ветре 12 м/с и более поправка равна нулю.
P - Атмосферное давление - приведенное к уровню моря атмосферное давление.
Po - Атмосферное давление - измеренное на уровне метеостанции атмосферное давление.
Tmin - Минимальная температура - минимум температуры воздуха на высоте 2 м над землей.
Tmax - Максимальная температура - максимум температуры воздуха на высоте 2 м над землей.
R - Количество осадков - Количество выпавших осадков за период времени, мм. При наведении курсора мыши на число - период времени, за который выпало указанное количество осадков.
R24 - Количество осадков - Количество выпавших осадков за 24 часа, мм.
S - Снежный покров - Высота снежного покрова, см. При наведении курсора мыши на число - состояние снежного покрова и степень покрытия местности в баллах.